1998-067TC

Last updated on Thu May 05 2022 00:02:06 GMT+0000 (Coordinated Universal Time)

1 51440U 98067TC 22122.57554109 .12827581 12252-4 26829-2 0 9998 2 51440 51.6172 191.6740 0007822 348.5228 11.5614 16.30091620 15133

Satellite not in orbit